Погода в Славе

Польша     51°52′51″N   16°04′21″E
темп.,
°C
ветер,
м/с
пор.,
м/с
влажн.,
%
обл.,
%
осадки,
мм/ч
давл.,
гПа
погр.,
м
28 февраля, вс
вс2801:00+2з389625 0.0 1038259
04:00+3з499389 0.0 1036360
07:00+1з4109480 0.0 1036343
10:00+4з588444 0.0 1036475
13:00+7зсз577459 0.0 1035546
16:00+8зсз48741 0.0 1034694
19:00+5сз25938 0.0 1034113
22:00+3сз23960 0.0 103551
1 марта, пн
пн101:00+2зсз23960 0.0 103639
04:00+2сз12950 0.0 103522
07:00+1зсз12950 0.0 103622
10:00+6з12780 0.0 1036313
13:00+10з22600 0.0 1036571
16:00+10з23580 0.0 1035525
19:00+6зюз12730 0.0 103522
22:00+5з22810 0.0 103522
2 марта, вт
вт201:00+4з22880 0.0 103522
04:00+3з23900 0.0 103427
07:00+2з23910 0.0 103436
10:00+7зсз23680 0.0 1034272
13:00+11зсз23500 0.0 1034533
16:00+11сз23510 0.0 1033492
19:00+7сз11650 0.0 103322
22:00+5св11730 0.0 103322
3 марта, ср
ср301:00+4в11810 0.0 103322
04:00+3ююв11840 0.0 103222
07:00+2ю12830 0.0 103122
10:00+8ююз12610 0.0 1030257
13:00+12ююз22510 0.0 1028588
16:00+13юз23520 0.0 1026799
19:00+8юз22690 0.0 102424
22:00+6юз23770 0.0 102368
4 марта, чт
чт401:00+5зюз37850 0.0 1021143
04:00+4зюз389111 0.0 1019180
07:00+3зюз389511 0.0 1018203
10:00+8з477845 0.0 1016395
13:00+11з476973 0.0 1014831
16:00+10зсз3676100 0.1 1012729
19:00+8с3684100 0.6 1012353
22:00+5ссв4790100 0.8 1013405